This is the latest recevied weather packets stored in our database for station/object N5ATR. If no packets are shown the sender has not sent any weather packets the latest 1 day(s).
| Time | Temp. | Humidity | Pressure | Rain* | Wind** | Luminosity | Snow |
|---|---|---|---|---|---|---|---|
| 1778051061 | 5.56° C | 81% | 1013.2 hPa | 0 mm | 0.45 m/s, 344° | 0 W/m² | - |
| 1778050758 | 6.11° C | 80% | 1013 hPa | 0 mm | 0.89 m/s, 325° | 0 W/m² | - |
| 1778050456 | 6.11° C | 80% | 1013.2 hPa | 0 mm | 0.89 m/s, 337° | 0 W/m² | - |
| 1778050152 | 6.11° C | 79% | 1013.2 hPa | 0 mm | 1.34 m/s, 292° | 0 W/m² | - |
| 1778049848 | 6.11° C | 80% | 1013 hPa | 0 mm | 1.34 m/s, 312° | 0 W/m² | - |
| 1778049545 | 6.11° C | 81% | 1013.3 hPa | 0 mm | 1.34 m/s, 326° | 0 W/m² | - |
| 1778049243 | 6.11° C | 82% | 1013 hPa | 0 mm | 1.79 m/s, 317° | 0 W/m² | - |
| 1778048940 | 6.11° C | 83% | 1013.2 hPa | 0 mm | 0.89 m/s, 326° | 0 W/m² | - |
| 1778048638 | 6.11° C | 82% | 1013 hPa | 0 mm | 0.89 m/s, 277° | 0 W/m² | - |
| 1778048334 | 5.56° C | 84% | 1013 hPa | 0 mm | 1.34 m/s, 284° | 0 W/m² | - |
| 1778048031 | 5.56° C | 85% | 1012.8 hPa | 0 mm | 1.79 m/s, 293° | 0 W/m² | - |
| 1778047729 | 5.56° C | 85% | 1012.8 hPa | 0 mm | 0.89 m/s, 351° | 0 W/m² | - |
| 1778047427 | 5.56° C | 85% | 1012.7 hPa | 0 mm | 2.24 m/s, 299° | 0 W/m² | - |
| 1778047123 | 5.56° C | 86% | 1012.9 hPa | 0 mm | 1.34 m/s, 310° | 0 W/m² | - |
| 1778046820 | 5.56° C | 85% | 1012.7 hPa | 0 mm | 1.34 m/s, 299° | 0 W/m² | - |
| 1778046517 | 5.56° C | 85% | 1012.7 hPa | 0 mm | 1.79 m/s, 293° | 0 W/m² | - |
| 1778046214 | 5.56° C | 85% | 1012.7 hPa | 0 mm | 1.34 m/s, 305° | 0 W/m² | - |
| 1778045910 | 6.11° C | 84% | 1013 hPa | 0 mm | 2.24 m/s, 302° | 0 W/m² | - |
| 1778045609 | 5.56° C | 83% | 1013.2 hPa | 0 mm | 3.13 m/s, 296° | 0 W/m² | - |
| 1778045307 | 5.56° C | 84% | 1012.7 hPa | 0 mm | 2.68 m/s, 314° | 0 W/m² | - |
| 1778045005 | 5.56° C | 85% | 1012.9 hPa | 0 mm | 1.79 m/s, 279° | 0 W/m² | - |
| 1778044703 | 5.56° C | 85% | 1012.9 hPa | 0 mm | 3.58 m/s, 291° | 0 W/m² | - |
| 1778044398 | 5.56° C | 85% | 1012.9 hPa | 0 mm | 1.79 m/s, 297° | 0 W/m² | - |
| 1778044096 | 5.56° C | 85% | 1012.7 hPa | 0 mm | 2.24 m/s, 316° | 0 W/m² | - |
| 1778043794 | 5.56° C | 85% | 1012.9 hPa | 0 mm | 1.79 m/s, 286° | 0 W/m² | - |
* Rain latest hour (hover to see other rain measurements)
** Current wind speed in m/s (hover to see current wind gust speed)